Location: Newark
(34.4697°S, 57.8467°W)
Time: 23:53:38
(UTC+00:00)

N. Korean satellite - Pass Details

Date: 27 July 2019
Orbit: 457 x 507 km, 97.2° (Epoch: 23 August)

Event Time Altitude Azimuth Distance (km) Brightness Sun altitude
Rises 09:44:25 0° 349° (NNW) 2,579 10.3 -13.4°
Reaches altitude 10° 09:46:43 10° 336° (NNW) 1,698 9.2 -13.0°
Maximum altitude 09:49:51 27° 277° (W) 996 7.6 -12.4°
Enters shadow 09:52:05 15° 227° (SW) 1,397 8.3 -11.9°
